Location: Borea
(45.6167°N, 23.0167°E)
Time: 00:55:29
(UTC+00:00)

OPS 8068 - Pass Details

Date: 26 February 2024
Orbit: 631 x 963 km, 98.3° (Epoch: 13 April)

Event Time Altitude Azimuth Distance (km) Brightness Sun altitude
Rises 01:24:01 0° 105° (ESE) 2,944 ? -39.4°
Reaches altitude 10° 01:28:03 10° 67° (ENE) 2,085 ? -38.8°
Maximum altitude 01:29:02 11° 55° (NE) 2,056 ? -38.7°
Drops below altitude 10° 01:30:02 10° 42° (NE) 2,117 ? -38.5°
Sets 01:34:17 0° 5° (N) 3,116 ? -37.9°
